Phuket, Thailand

3:51 AM +07 on 六月 28, 2017 (GMT +0700)
Phuket International

天気 に付いての歴史 VTSP - 六月, 2017

Change the Weather History Date:

月曜日, 六月 19, 2017

  Actual Average Record
Temperature  
平均温度 82 °F -  
最高温度 91 °F 88 °F 95 °F (2002)
最低温度 73 °F 78 °F 73 °F (1999)
Cooling Degree Days 17    
Growing Degree Days 32 (Base 50)    
Moisture  
露点温度 74 °F    
Average Humidity 68    
Maximum Humidity 83    
Minimum Humidity 56    
降水確率  
降水確率 0.01 インチ 0.37 インチ - ()
海面圧  
海面圧 29.83 インチ    
 
風速 8 Mph ()    
最大風速 16 Mph    
Max Gust Speed -    
視程 5.0 マイル    
イベント      
Averages and records for this station are not official NWS values.
T = Trace of Precipitation, MM = Missing Value Source: Averaged Metar Reports

Daily Weather History Graph

Daily Weather History Graph

Search for Another Location

Airport or City:

Trip Planner

Search our weather history database for the weather conditions in past years. The results will help you decide how hot, cold, wet, or windy it might be!

Date:

天文

Jun. 19, 2017 入り
実時間 6:10 AM +07 6:45 PM +07
常用薄明 5:47 AM +07 7:08 PM +07
航海薄明 5:20 AM +07 7:35 PM +07
天文薄明 4:53 AM +07 8:02 PM +07
1:34 AM +07 (6/19) 2:02 PM +07 (6/19)
可視光の長さ 13h 21m
可照時間
12h 35m
二十六夜, 31% of the Moon is Illuminated
6月 19
二十六夜
6月 24
新しい
7月 1
上弦
7月 9
満月
7月 17
第 4 四半期

Hourly Weather History & Observations

時間 (+07) 温度 体感気温(暑さ) 露点温度 湿度 気圧 視程 Wind Dir 風速 突風の速度 Precip イベント 現在の気象状況
12:00 AM 78.8 °F - 73.4 °F 83% 29.89 インチ 5.0 マイル 変数 4.6 Mph - N/A   だいたい曇
12:30 AM 80.6 °F 85.4 °F 73.4 °F 79% 29.86 インチ 5.0 マイル 西南西 5.8 Mph - N/A   だいたい曇
1:00 AM 85 °F - 78 °F 75% 29.82 インチ 5 マイル 西南西 3.5 Mph - -   もや
1:00 AM 80.6 °F 85.4 °F 73.4 °F 79% 29.86 インチ 5.0 マイル 西南西 5.8 Mph - N/A   だいたい曇
1:30 AM 82.4 °F 88.2 °F 73.4 °F 74% 29.83 インチ 5.0 マイル 西 8.1 Mph - N/A   だいたい曇
2:00 AM 82.4 °F 88.2 °F 73.4 °F 74% 29.83 インチ 5.0 マイル 西 8.1 Mph - N/A   だいたい曇
2:30 AM 82.4 °F 88.2 °F 73.4 °F 74% 29.83 インチ 5.0 マイル 西 8.1 Mph - N/A   だいたい曇
3:00 AM 82.4 °F 88.2 °F 73.4 °F 74% 29.83 インチ 5.0 マイル 西 11.5 Mph - N/A   だいたい曇
3:30 AM 82.4 °F 88.2 °F 73.4 °F 74% 29.83 インチ 5.0 マイル 西 10.4 Mph - N/A   だいたい曇
4:00 AM 78 °F - 71 °F 74% 29.78 インチ 5 マイル 西北西 3.5 Mph - -   もや
4:00 AM 82.4 °F 88.2 °F 73.4 °F 74% 29.80 インチ 5.0 マイル 西 11.5 Mph - N/A   だいたい曇
4:30 AM 82.4 °F 88.2 °F 73.4 °F 74% 29.80 インチ 5.0 マイル 西 8.1 Mph - N/A   だいたい曇
5:00 AM 82.4 °F 88.2 °F 73.4 °F 74% 29.80 インチ 5.0 マイル 西 6.9 Mph - N/A   だいたい曇
5:30 AM 82.4 °F 88.2 °F 73.4 °F 74% 29.80 インチ 5.0 マイル 西 8.1 Mph - N/A   だいたい曇
6:00 AM 82.4 °F 88.2 °F 73.4 °F 74% 29.83 インチ 5.0 マイル 西 4.6 Mph - N/A   だいたい曇
6:30 AM 82.4 °F 88.2 °F 73.4 °F 74% 29.83 インチ 5.0 マイル 西 8.1 Mph - N/A   だいたい曇
7:00 AM 85 °F - 77 °F 72% 29.79 インチ 5 マイル 西 2.3 Mph - -   もや
7:00 AM 82.4 °F 88.2 °F 73.4 °F 74% 29.83 インチ 5.0 マイル 西 6.9 Mph - N/A   だいたい曇
7:30 AM 84.2 °F 90.9 °F 73.4 °F 70% 29.83 インチ 5.0 マイル 西 9.2 Mph - N/A   だいたい曇
8:00 AM 84.2 °F 92.3 °F 75.2 °F 74% 29.86 インチ 5.0 マイル 西 10.4 Mph - N/A   だいたい曇
8:30 AM 86.0 °F 95.1 °F 75.2 °F 70% 29.86 インチ 5.0 マイル 西 15.0 Mph - N/A   だいたい曇
9:00 AM 86.0 °F 95.1 °F 75.2 °F 70% 29.86 インチ 5.0 マイル 西 15.0 Mph - N/A   だいたい曇
9:30 AM 87.8 °F 97.6 °F 75.2 °F 66% 29.86 インチ 5.0 マイル 西 13.8 Mph - N/A   だいたい曇
10:00 AM 90 °F - 77 °F 57% 29.81 インチ 5 マイル 西北西 3.5 Mph - -   もや
10:00 AM 87.8 °F 97.6 °F 75.2 °F 66% 29.86 インチ 5.0 マイル 西 15.0 Mph - N/A   だいたい曇
10:30 AM 87.8 °F 97.6 °F 75.2 °F 66% 29.86 インチ 5.0 マイル 西 13.8 Mph - N/A   だいたい曇
11:00 AM 87.8 °F 97.6 °F 75.2 °F 66% 29.86 インチ 5.0 マイル 西 16.1 Mph - N/A   だいたい曇
11:30 AM 87.8 °F 97.6 °F 75.2 °F 66% 29.86 インチ 5.0 マイル 西 15.0 Mph - N/A   だいたい曇
12:00 PM 87.8 °F 97.6 °F 75.2 °F 66% 29.86 インチ 5.0 マイル 西 15.0 Mph - N/A   だいたい曇
12:30 PM 89.6 °F 99.8 °F 75.2 °F 62% 29.86 インチ 5.0 マイル 西 15.0 Mph - N/A   だいたい曇
1:00 PM 91 °F - 77 °F 56% 29.78 インチ 5 マイル 西 4.6 Mph - -   煙霧
1:00 PM 87.8 °F 97.6 °F 75.2 °F 66% 29.83 インチ 5.0 マイル 西 15.0 Mph - N/A   だいたい曇
1:30 PM 89.6 °F 99.8 °F 75.2 °F 62% 29.83 インチ 5.0 マイル 西 16.1 Mph - N/A   だいたい曇
2:00 PM 89.6 °F 99.8 °F 75.2 °F 62% 29.83 インチ 5.0 マイル 西 16.1 Mph - N/A   だいたい曇
2:30 PM 87.8 °F 95.6 °F 73.4 °F 62% 29.80 インチ 5.0 マイル 西 15.0 Mph - N/A   だいたい曇
3:00 PM 89.6 °F 99.8 °F 75.2 °F 62% 29.80 インチ 5.0 マイル 西 16.1 Mph - N/A   だいたい曇
3:30 PM 87.8 °F 95.6 °F 73.4 °F 62% 29.80 インチ 5.0 マイル 西 15.0 Mph - N/A   だいたい曇
4:00 PM 90 °F - 77 °F 59% 29.75 インチ 5 マイル 西 4.6 Mph - -   もや
4:00 PM 89.6 °F 98.2 °F 73.4 °F 59% 29.80 インチ 5.0 マイル 西 16.1 Mph - N/A   だいたい曇
4:30 PM 87.8 °F 95.6 °F 73.4 °F 62% 29.80 インチ 5.0 マイル 西 15.0 Mph - N/A   だいたい曇
5:00 PM 87.8 °F 95.6 °F 73.4 °F 62% 29.80 インチ 5.0 マイル 西 13.8 Mph - N/A   だいたい曇
5:30 PM 86.0 °F 93.4 °F 73.4 °F 66% 29.80 インチ 5.0 マイル 西 12.7 Mph - N/A   だいたい曇
6:00 PM 86.0 °F 93.4 °F 73.4 °F 66% 29.80 インチ 5.0 マイル 西 11.5 Mph - N/A   だいたい曇
6:30 PM 86.0 °F 91.8 °F 71.6 °F 62% 29.80 インチ 5.0 マイル 西 11.5 Mph - N/A   だいたい曇
7:00 PM 86 °F - 76 °F 65% 29.77 インチ 5 マイル 西 3.5 Mph - -   もや
7:00 PM 86.0 °F 91.8 °F 71.6 °F 62% 29.83 インチ 5.0 マイル 西 10.4 Mph - N/A   だいたい曇
7:30 PM 84.2 °F 90.9 °F 73.4 °F 70% 29.83 インチ 5.0 マイル 西 10.4 Mph - N/A   だいたい曇
8:00 PM 84.2 °F 89.6 °F 71.6 °F 66% 29.83 インチ 5.0 マイル 西 11.5 Mph - N/A   だいたい曇
8:30 PM 84.2 °F 89.6 °F 71.6 °F 66% 29.86 インチ 5.0 マイル 西 10.4 Mph - N/A   だいたい曇
9:00 PM 84.2 °F 89.6 °F 71.6 °F 66% 29.86 インチ 5.0 マイル 西 11.5 Mph - N/A   だいたい曇
9:30 PM 84.2 °F 90.9 °F 73.4 °F 70% 29.89 インチ 5.0 マイル 西 11.5 Mph - N/A   だいたい曇
10:00 PM 86 °F - 78 °F 70% 29.83 インチ 5 マイル 西 3.5 Mph - -   もや
10:00 PM 84.2 °F 90.9 °F 73.4 °F 70% 29.89 インチ 5.0 マイル 西 9.2 Mph - N/A   だいたい曇
10:30 PM 84.2 °F 90.9 °F 73.4 °F 70% 29.89 インチ 5.0 マイル 西 8.1 Mph - N/A   だいたい曇
11:00 PM 84.2 °F 90.9 °F 73.4 °F 70% 29.89 インチ 5.0 マイル 西 10.4 Mph - N/A   だいたい曇
11:30 PM 84.2 °F 90.9 °F 73.4 °F 70% 29.89 インチ 5.0 マイル 西 12.7 Mph - N/A   だいたい曇